weather.gov     
National Weather Service

Regional Weather Roundup
NWS Homepage
This page is being discontinued on March 12, 2014.
The same data is available at this site. Please update your bookmarks.
Thank you, and we apologize for the inconvenience.
Please send an email to SR-SRH.Webmaster@noaa.gov with any concerns.


Current Version
Previous Version:    01  02  03  04  05  06  07  08  09  10  11  12  13  14  15  16  17  18  19  20  21  22  23  24  25  26  
[Printable]
145
ASUS45 KREV 290010
RWRNV
NEVADA REGIONAL WEATHER ROUNDUP
NATIONAL WEATHER SERVICE RENO NV
500 PM PDT MON JUL 28 2014

NOTE: "FAIR" INDICATES FEW OR NO CLOUDS BELOW 12,000 FEET WITH NO
SIGNIFICANT WEATHER AND/OR OBSTRUCTIONS TO VISIBILITY.

NVZ001-003-004-290100-
WESTERN NEVADA

CITY           SKY/WX    TMP DP  RH WIND       PRES   REMARKS
RENO           CLOUDY    92  38  15 NW13      30.13S
6HR MIN TEMP:  86; 6HR MAX TEMP:  98;

CARSON CITY    LGT RAIN  84  45  24 SE6G17    30.20R
SLIDE MTN        N/A     66  41  39 NW13        N/A
PYRAMID LAKE     N/A     91 N/A N/A CALM        N/A
FALLON         CLOUDY    90  35  14 NE13G23   30.10F
6HR MIN TEMP:  89; 6HR MAX TEMP:  93;

LOVELOCK       CLOUDY    95  32  11 MISG      30.07S
6HR MIN TEMP:  87; 6HR MAX TEMP:  97; 6HR PCP: TRACE;

HAWTHORNE      MOSUNNY   75  55  50 SE16      30.25R
$$

NVZ002-CAZ072-073-290100-
NORTHERN AND CENTRAL SIERRA

CITY           SKY/WX    TMP DP  RH WIND       PRES   REMARKS
S. LAKE TAHOE  PTSUNNY   84  38  19 S9        30.31S
6HR MIN TEMP:  80; 6HR MAX TEMP:  87;

TRUCKEE        PTSUNNY   81  43  26 W17       30.29S
                   6HR MAX TEMP:  88;

SQUAW VLY 8000 NOT AVBL
SUSANVILLE     MOSUNNY   95  36  12 W12G22    30.11S
BLUE CANYON    PTSUNNY   79  40  24 SW8       30.30S
MAMMOTH LAKES  LGT RAIN  57  54  88 NW6       30.48S
BRIDGEPORT     LGT RAIN  63  52  67 VRB3      30.37R
$$

NVZ030-031-036-290100-
NORTHERN NEVADA

CITY           SKY/WX    TMP DP  RH WIND       PRES   REMARKS
ELKO           CLOUDY    81  46  29 S17G26    30.19R
6HR MIN TEMP:  80; 6HR MAX TEMP:  93; 6HR PCP: TRACE;

WINNEMUCCA     CLOUDY    95  31  10 W10       30.10F
6HR MIN TEMP:  89; 6HR MAX TEMP:  97;

WENDOVER       CLOUDY    86  46  25 W24       30.13R
$$

NVZ035-037-290100-
CENTRAL NEVADA

CITY           SKY/WX    TMP DP  RH WIND       PRES   REMARKS
ELY            CLOUDY    69  59  70 NW6       30.34F
6HR MIN TEMP:  60; 6HR MAX TEMP:  80; 6HR PCP:  0.05;

EUREKA           N/A     65  58  78 SE10      30.33F
6HR MIN TEMP:  63; 6HR MAX TEMP:  87; 6HR PCP:  0.02;

$$

NVZ013-014-290100-
SOUTH CENTRAL NEVADA

CITY           SKY/WX    TMP DP  RH WIND       PRES   REMARKS
TONOPAH        CLOUDY    77  50  38 VRB7      30.32R
6HR MIN TEMP:  71; 6HR MAX TEMP:  80; 6HR PCP: TRACE;

$$

NVZ017-020-022-290100-
SOUTHERN NEVADA

CITY           SKY/WX    TMP DP  RH WIND       PRES   REMARKS
LAS VEGAS      CLOUDY    89  60  37 SW13      29.99F
6HR MIN TEMP:  89; 6HR MAX TEMP:  96;

N. LAS VEGAS   CLOUDY    90  59  35 N14       30.02S
6HR MIN TEMP:  88; 6HR MAX TEMP:  98; 6HR PCP: TRACE;

NELLIS AFB     CLOUDY    92  60  34 W18       29.99F
6HR MIN TEMP:  88; 6HR MAX TEMP:  96; 6HR PCP: TRACE;

HENDERSON      CLOUDY    84  62  47 SW12      30.06F
6HR MIN TEMP:  82; 6HR MAX TEMP:  96; 6HR PCP: TRACE;

MERCURY        CLOUDY    81  59  47 E6        30.12F
6HR MIN TEMP:  78; 6HR MAX TEMP:  91; 6HR PCP:  0.01;

$$




U.S. Dept. of Commerce
NOAA National Weather Service
1325 East West Highway
Silver Spring, MD 20910
E-mail: w-nws.webmaster@noaa.gov
Page last modified: May 16, 2007
NATIONAL WEATHER SERVICE: for Safety, for Work, for Fun - FOR LIFE